Home > Time Zones > World Clock > Weather > Italy > Genoa > Past weeks

Flag for Italy Weather past 2 weeks in Genoa, Italy

Now
79 °F

Clear.


Feels Like: 80 °F
Forecast: 68 / 88 °F
Wind: 8 mph from East

Location: Genova / Sestri

Current Time: Aug 1, 2015 at 2:16:53 AM

Latest Report: Aug 1, 2015 at 1:20 AM


Visibility: 10 mi

Pressure: 29.86 "Hg

Humidity: 48%

Dew point: 57 °F

Location of GenoaLocation

Historic Weather in Genoa — Graph

°F

Genoa temperature yesterday

Maximum temperature yesterday: 90 °F (at 5:20 PM)
Minimum temperature yesterday: 73 °F (at 5:20 AM)
Average temperature yesterday: 82 °F

Past Weeks' High & Low Weather Summary

 TemperatureHumidityPressure
High90 °F (Jul 31, 5:20 PM)89% (Jul 23, 5:20 AM)30.09 "Hg (Jul 23, 5:20 AM)
Low73 °F (Jul 28, 4:20 AM)33% (Jul 31, 5:20 PM)29.68 "Hg (Jul 27, 2:50 PM)
Average81 °F62%29.86 "Hg
* Reported Jul 17 12:20 AM — Aug 1 12:50 AM, Genoa, Weather by CustomWeather, © 2015

Note: Actual official high and low records may vary slightly from our data, if they occured in-between our weather recording intervals... More about our weather records

Advertising

Genoa weather history for previous 24 hours

 ConditionsComfort  
Time TempWeatherWind HumidityBarometerVisibility
12:50 AM
Sat, Aug 1
79 °FPassing clouds.9 mph48%29.86 "HgN/A
12:20 AM79 °FPassing clouds.8 mph48%29.89 "HgN/A
11:50 PM
Fri, Jul 31
81 °FPassing clouds.5 mph45%29.89 "HgN/A
11:20 PM79 °FPassing clouds.7 mph51%29.89 "HgN/A
10:50 PM81 °FClear.7 mph45%29.89 "Hg10 mi
10:20 PM81 °FPassing clouds.5 mph48%29.89 "HgN/A
9:50 PM81 °FPassing clouds.7 mph48%29.89 "HgN/A
9:20 PM81 °FPassing clouds.7 mph48%29.86 "HgN/A
8:50 PM82 °FPassing clouds.8 mph45%29.86 "HgN/A
8:20 PM82 °FPassing clouds.6 mph45%29.86 "HgN/A
7:50 PM84 °FPassing clouds.8 mph43%29.83 "HgN/A
7:20 PM86 °FSunny.9 mph40%29.83 "Hg10 mi
6:50 PM86 °FPassing clouds.8 mph40%29.83 "HgN/A
6:20 PM88 °FPassing clouds.12 mph38%29.83 "HgN/A
5:50 PM90 °FPassing clouds.10 mph36%29.83 "HgN/A
5:20 PM90 °FPassing clouds.7 mph33%29.83 "HgN/A
4:50 PM88 °FPassing clouds.8 mph38%29.83 "HgN/A
4:20 PM88 °FPassing clouds.9 mph38%29.86 "HgN/A
3:50 PM88 °FPassing clouds.8 mph40%29.86 "HgN/A
3:20 PM88 °FPassing clouds.8 mph38%29.86 "HgN/A
2:50 PM88 °FPassing clouds.12 mph40%29.86 "HgN/A
2:20 PM88 °FPassing clouds.6 mph40%29.86 "HgN/A
1:50 PM86 °FPassing clouds.14 mph43%29.86 "HgN/A
1:20 PM86 °FPassing clouds.14 mph46%29.86 "HgN/A
12:50 PM86 °FPassing clouds.15 mph46%29.86 "HgN/A
12:20 PM86 °FSunny.8 mph46%29.86 "Hg10 mi
11:50 AM84 °FPassing clouds.7 mph48%29.86 "HgN/A
11:20 AM84 °FPassing clouds.7 mph51%29.86 "HgN/A
10:50 AM84 °FPassing clouds.6 mph48%29.83 "HgN/A
10:20 AM84 °FPassing clouds.9 mph48%29.83 "HgN/A
9:50 AM81 °FPassing clouds.10 mph54%29.83 "HgN/A
9:20 AM81 °FPassing clouds.5 mph62%29.83 "HgN/A
8:50 AM81 °FPassing clouds.1 mph58%29.83 "HgN/A
8:20 AM79 °FPassing clouds.5 mph61%29.83 "HgN/A
7:50 AM77 °FPassing clouds.5 mph65%29.83 "HgN/A
7:20 AM75 °FPassing clouds.5 mph69%29.80 "HgN/A
6:50 AM75 °FPassing clouds.5 mph69%29.80 "HgN/A
6:20 AM73 °FPassing clouds.6 mph74%29.80 "HgN/A
5:50 AM73 °FPassing clouds.5 mph74%29.80 "HgN/A
5:20 AM73 °FPassing clouds.5 mph74%29.80 "HgN/A
4:50 AM75 °FPassing clouds.5 mph69%29.80 "HgN/A
4:20 AM75 °FPassing clouds.5 mph69%29.80 "HgN/A
3:50 AM75 °FPassing clouds.5 mph69%29.80 "HgN/A
2:50 AM75 °FPassing clouds.6 mph65%29.80 "HgN/A
2:20 AM75 °FPassing clouds.6 mph65%29.83 "HgN/A
Weather by CustomWeather, © 2015

See weather overviewHow to use our weather pages